Location: *
(50.2903°S, 172.5375°W)
Time: 06:18:49
(UTC+00:00)

H-2A R/B - Pass Details

Date: 17 November 2019
Orbit: 577 x 656 km, 98.5° (Epoch: 05 December)

Event Time Altitude Azimuth Distance (km) Brightness Sun altitude
Rises 13:40:55 0° 153° (SSE) 2,942 7.4 -13.6°
Reaches altitude 10° 13:43:37 10° 136° (SE) 2,040 6.2 -13.4°
Maximum altitude 13:46:56 20° 88° (E) 1,483 4.4 -13.1°
Drops below altitude 10° 13:50:16 10° 40° (NE) 2,052 4.6 -12.7°
Sets 13:52:59 0° 23° (NNE) 2,964 5.3 -12.5°
